CDT,Max TemperatureF,Mean TemperatureF,Min TemperatureF,Max Dew PointF,MeanDew PointF,Min DewpointF,Max Humidity, Mean Humidity, Min Humidity, Max Sea Level PressureIn, Mean Sea Level PressureIn, Min Sea Level PressureIn, Max VisibilityMiles, Mean VisibilityMiles, Min VisibilityMiles, Max Wind SpeedMPH, Mean Wind SpeedMPH, Max Gust SpeedMPH,PrecipitationIn, CloudCover, Events, WindDirDegrees
2013-6-1,94,85,76,76,75,72,97,84,49,29.91,29.83,29.78,10,10,10,20,11,25,0.00,4,,170
2013-6-2,86,76,66,77,67,62,100,84,44,30.06,29.96,29.89,10,9,2,15,6,28,0.28,3,Rain-Thunderstorm,64
2013-6-3,89,76,64,72,66,63,100,80,44,29.99,29.94,29.83,10,10,10,7,3,,0.00,2,,352
2013-6-4,91,80,69,73,70,66,100,75,43,29.91,29.86,29.80,10,9,2,15,7,,0.00,2,Fog,174
2013-6-5,91,79,67,73,70,65,100,82,41,29.89,29.85,29.74,10,10,10,13,6,16,0.00,2,,173
2013-6-6,91,78,66,75,69,65,100,81,45,29.92,29.84,29.76,10,9,0,15,5,23,0.00,2,Fog,91
2013-6-7,79,72,67,70,67,64,99,82,66,30.01,29.94,29.87,10,10,10,12,8,20,0.00,3,Rain-Thunderstorm,15
2013-6-8,89,76,62,75,70,62,100,80,53,29.94,29.88,29.78,10,10,9,14,6,22,0.00,3,,126
2013-6-9,89,81,73,77,75,65,100,90,59,29.95,29.90,29.84,10,10,2,9,4,,0.00,4,Rain-Thunderstorm,108
2013-6-10,92,80,69,77,72,69,100,89,49,30.01,29.97,29.90,10,8,2,16,2,21,0.00,3,Rain,116
2013-6-11,94,82,71,76,73,68,100,91,48,30.05,30.01,29.96,10,9,0,32,6,48,0.04,3,Fog-Rain-Thunderstorm,154
2013-6-12,92,81,71,77,75,70,100,91,56,30.07,30.02,29.95,10,8,1,31,6,38,0.13,4,Rain-Thunderstorm,154
2013-6-13,88,80,73,79,76,70,100,95,68,30.08,30.02,29.94,10,10,4,22,6,38,0.02,5,Rain-Thunderstorm,161
2013-6-14,86,79,73,79,76,73,100,97,70,30.02,29.96,29.89,10,10,4,9,3,,0.03,5,Rain-Thunderstorm,97
2013-6-15,92,82,75,79,76,70,100,92,51,30.01,29.95,29.88,10,10,5,12,5,,0.00,6,Rain,168
2013-6-16,95,84,73,77,75,67,100,86,41,30.03,29.98,29.89,10,10,9,15,7,18,0.00,5,Rain,179
2013-6-17,94,84,75,77,75,66,100,79,40,30.02,29.95,29.84,10,10,10,15,8,20,0.00,5,,184
2013-6-18,93,84,75,76,73,67,100,79,41,30.02,29.96,29.86,10,10,10,12,6,,0.00,4,,190
2013-6-19,95,84,74,76,73,65,100,80,37,30.00,29.95,29.88,10,10,10,15,8,,0.00,3,,181
2013-6-20,96,83,71,77,73,66,100,78,41,30.08,30.01,29.94,10,10,10,18,10,24,0.00,4,,175
2013-6-21,96,86,75,77,72,60,100,76,33,30.10,30.05,29.96,10,10,10,18,10,26,0.00,4,,175
2013-6-22,96,85,74,76,71,63,100,68,34,30.06,30.00,29.88,10,10,10,21,12,28,0.00,3,,175
2013-6-23,96,85,74,77,71,60,100,76,33,30.00,29.95,29.88,10,10,7,17,10,24,0.00,4,,168
2013-6-24,97,86,75,76,73,66,100,77,37,30.04,29.99,29.88,10,10,10,23,12,31,0.00,5,,165
2013-6-25,98,86,75,77,71,62,100,70,32,30.02,29.97,29.86,10,10,10,22,12,30,0.00,3,,171
2013-6-26,98,86,75,73,71,66,94,67,35,30.00,29.94,29.86,10,10,10,16,12,23,0.00,5,,177
2013-6-27,99,87,75,74,69,56,89,67,24,30.03,29.97,29.89,10,10,10,15,9,21,0.00,3,,183
2013-6-28,100,88,75,73,67,60,94,59,27,30.01,29.92,29.81,10,10,10,9,5,,0.00,1,,217
2013-6-29,106,92,78,70,64,56,75,45,19,29.87,29.81,29.72,10,10,10,13,6,18,0.00,0,,206
2013-6-30,87,79,70,71,67,61,92,72,40,30.02,29.89,29.80,10,10,6,24,8,34,0.15,5,Rain-Thunderstorm,346